Retour au catalogue

METEOR 2-20 DEB

ActifPO
NORAD 59998·DEBRIS·🇷🇺 Russia

Lancé Sep 28, 1990 depuis Plesetsk Cosmodrome

Loading…

Prochains Passages (prochaines 24 heures)

TLE

FraisSource: Space-Track

Époque: Sep 14, 2026, 01:15 UTC

1 59998U 90086H   26257.05272812  .00000734  00000-0  58418-3 0  9995
2 59998  82.5311 122.8742 0017072 119.4133 240.8737 13.89842920129815

Suivez METEOR 2-20 DEB en temps réel avec AllMySat

Download on the App Store